This is the latest recevied weather packets stored in our database for station/object N4AN. If no packets are shown the sender has not sent any weather packets the latest 1 day(s).
| Time | Temp. | Humidity | Pressure | Rain* | Wind** | Luminosity | Snow |
|---|---|---|---|---|---|---|---|
| 1778011106 | 30° C | 75% | 1008.5 hPa | 0 mm | 3.58 m/s, 70° | - | - |
| 1778010804 | 29.44° C | 75% | 1008.6 hPa | 0 mm | 2.68 m/s, 350° | - | - |
| 1778010502 | 29.44° C | 75% | 1008.5 hPa | 0 mm | 1.34 m/s, 343° | - | - |
| 1778010202 | 29.44° C | 75% | 1008.6 hPa | 0 mm | 3.13 m/s, 1° | - | - |
| 1778009899 | 29.44° C | 75% | 1008.7 hPa | 0 mm | 1.79 m/s, 336° | - | - |
| 1778009599 | 29.44° C | 75% | 1008.8 hPa | 0 mm | 2.24 m/s, 347° | - | - |
| 1778009299 | 29.44° C | 74% | 1008.9 hPa | 0 mm | 1.34 m/s, 240° | - | - |
| 1778008998 | 29.44° C | 75% | 1009 hPa | 0 mm | 4.02 m/s, 51° | - | - |
| 1778008698 | 29.44° C | 75% | 1008.9 hPa | 0 mm | 3.58 m/s, 84° | - | - |
| 1778008397 | 29.44° C | 74% | 1009 hPa | 0 mm | 2.68 m/s, 1° | - | - |
| 1778008190 | 29.44° C | 74% | 1009.1 hPa | 0 mm | 2.24 m/s, 6° | - | - |
| 1778007786 | 29.44° C | 75% | 1009.1 hPa | 0 mm | 1.34 m/s, 28° | - | - |
| 1778007081 | 28.89° C | 77% | 1009.2 hPa | 0 mm | 1.34 m/s, 8° | - | - |
| 1778006780 | 28.89° C | 79% | 1009.2 hPa | 0 mm | 0.89 m/s, 20° | - | - |
| 1778006480 | 27.78° C | 80% | 1009.2 hPa | 0 mm | 2.68 m/s, 89° | - | - |
| 1778006180 | 27.78° C | 81% | 1009.1 hPa | 0 mm | 0.45 m/s, 46° | - | - |
| 1778005877 | 26.67° C | 81% | 1009.1 hPa | 0 mm | 2.68 m/s, 68° | - | - |
| 1778005577 | 26.67° C | 80% | 1009 hPa | 0 mm | 4.47 m/s, 94° | - | - |
| 1778005276 | 26.67° C | 80% | 1009.2 hPa | 0 mm | 3.13 m/s, 98° | - | - |
| 1778004976 | 26.67° C | 80% | 1009.1 hPa | 0 mm | 5.81 m/s, 88° | - | - |
| 1778004676 | 27.22° C | 81% | 1009.2 hPa | 0 mm | 5.36 m/s, 88° | - | - |
| 1778004375 | 26.67° C | 81% | 1009.4 hPa | 0 mm | 1.34 m/s, 16° | - | - |
| 1778004075 | 26.67° C | 81% | 1009.5 hPa | 0 mm | 5.81 m/s, 89° | - | - |
| 1778003775 | 26.67° C | 81% | 1009.4 hPa | 0 mm | 4.92 m/s, 89° | - | - |
| 1778003472 | 26.67° C | 80% | 1009.4 hPa | 0 mm | 5.36 m/s, 89° | - | - |
* Rain latest hour (hover to see other rain measurements)
** Current wind speed in m/s (hover to see current wind gust speed)